Location: Eitze
(52.9840°N, 9.6894°E)
Time: 23:55:24
(UTC+00:00)

Cosmos 2154 Rocket - Pass Details

Date: 19 May 2025
Orbit: 965 x 996 km, 82.9° (Epoch: 22 June)

Event Time Altitude Azimuth Distance (km) Brightness Sun altitude
Rises 19:48:28 0° 348° (NNW) 3,669 8.0 -4.2°
Reaches altitude 10° 19:50:59 10° 348° (NNW) 2,718 7.3 -4.5°
Maximum altitude 19:57:12 81° 262° (W) 985 4.2 -5.2°
Drops below altitude 10° 20:03:24 10° 177° (S) 2,705 5.9 -5.8°
Sets 20:05:53 0° 176° (S) 3,651 6.5 -6.1°
